TimeAKST,TemperatureF,Dew PointF,Humidity,Sea Level PressureIn,VisibilityMPH,Wind Direction,Wind SpeedMPH,Gust SpeedMPH,PrecipitationIn,Events,Conditions,WindDirDegrees,DateUTC
12:13 AM,33.8,32.0,93,29.83,2.5,SE,5.8,-,0.00,Snow,Light Snow,140,2012-12-06 09:13:00
12:25 AM,33.8,32.0,93,29.83,3.0,South,5.8,-,0.01,Snow,Light Snow,170,2012-12-06 09:25:00
12:31 AM,33.8,32.0,93,29.83,2.5,SSE,6.9,-,0.02,Snow,Light Snow,160,2012-12-06 09:31:00
12:38 AM,33.8,32.0,93,29.83,1.8,SSE,6.9,-,0.02,Snow,Light Snow,160,2012-12-06 09:38:00
12:53 AM,33.1,32.0,96,29.84,2.0,SE,9.2,-,0.03,Snow,Light Snow,130,2012-12-06 09:53:00
1:02 AM,33.8,33.8,100,29.84,4.0,SE,9.2,-,0.01,Snow,Light Snow,140,2012-12-06 10:02:00
1:13 AM,33.8,33.8,100,29.84,2.0,SE,10.4,-,0.02,Snow,Light Snow,140,2012-12-06 10:13:00
1:18 AM,33.8,33.8,100,29.83,3.0,SE,11.5,18.4,0.03,Snow,Light Snow,130,2012-12-06 10:18:00
1:32 AM,33.8,32.0,93,29.83,1.8,SE,10.4,-,0.03,Snow,Light Snow,130,2012-12-06 10:32:00
1:53 AM,33.1,32.0,96,29.83,1.0,SE,8.1,-,0.06,Snow,Light Snow,140,2012-12-06 10:53:00
2:51 AM,33.8,32.0,93,29.83,1.8,SE,5.8,-,0.13,Snow,Light Snow,130,2012-12-06 11:51:00
3:07 AM,33.8,32.0,93,29.83,1.8,SE,6.9,-,0.01,Snow,Light Snow,140,2012-12-06 12:07:00
3:11 AM,33.8,32.0,93,29.82,2.0,SE,8.1,-,0.01,Snow,Light Snow,130,2012-12-06 12:11:00
3:19 AM,33.8,32.0,93,29.82,7.0,SE,8.1,-,0.01,Snow,Light Snow,140,2012-12-06 12:19:00
3:28 AM,33.8,33.8,100,29.82,10.0,SE,9.2,-,0.01,Rain,Light Rain,140,2012-12-06 12:28:00
3:51 AM,33.8,33.8,100,29.82,10.0,SSE,6.9,-,0.01,,Overcast,160,2012-12-06 12:51:00
3:53 AM,34.0,33.1,96,29.83,10.0,SSE,6.9,-,0.01,,Overcast,160,2012-12-06 12:53:00
4:53 AM,33.1,33.1,100,29.83,10.0,Calm,Calm,-,N/A,,Overcast,0,2012-12-06 13:53:00
5:53 AM,34.0,33.1,96,29.82,10.0,South,4.6,-,0.00,,Overcast,180,2012-12-06 14:53:00
6:06 AM,33.8,33.8,100,29.82,10.0,South,4.6,-,N/A,,Mostly Cloudy,190,2012-12-06 15:06:00
6:53 AM,34.0,33.1,96,29.82,10.0,Variable,3.5,-,N/A,,Overcast,0,2012-12-06 15:53:00
7:53 AM,34.0,33.1,96,29.82,10.0,South,4.6,-,N/A,,Overcast,170,2012-12-06 16:53:00
8:53 AM,33.1,32.0,96,29.83,10.0,SSE,3.5,-,N/A,,Overcast,150,2012-12-06 17:53:00
9:53 AM,34.0,33.1,96,29.83,10.0,South,3.5,-,N/A,,Overcast,170,2012-12-06 18:53:00
10:53 AM,34.0,33.1,96,29.83,10.0,Calm,Calm,-,0.00,Rain,Light Rain,0,2012-12-06 19:53:00
11:51 AM,33.8,33.8,100,29.82,10.0,SE,4.6,-,0.05,Rain,Light Rain,140,2012-12-06 20:51:00
11:53 AM,35.1,33.1,92,29.82,10.0,SE,3.5,-,0.05,Rain,Light Rain,140,2012-12-06 20:53:00
12:53 PM,35.1,34.0,96,29.81,7.0,SSE,8.1,-,0.00,Rain,Light Rain,150,2012-12-06 21:53:00
1:53 PM,35.1,33.1,92,29.78,10.0,South,5.8,-,0.01,,Mostly Cloudy,170,2012-12-06 22:53:00
2:53 PM,35.1,34.0,96,29.74,10.0,SSE,8.1,-,N/A,,Mostly Cloudy,160,2012-12-06 23:53:00
2:59 PM,35.6,33.8,93,29.73,10.0,SE,16.1,21.9,N/A,,Overcast,140,2012-12-06 23:59:00
3:53 PM,36.0,33.1,89,29.72,10.0,SE,13.8,20.7,0.00,Rain,Light Rain,140,2012-12-07 00:53:00
4:53 PM,37.0,30.9,79,29.69,10.0,SE,12.7,20.7,0.00,,Overcast,140,2012-12-07 01:53:00
5:53 PM,37.0,30.0,76,29.65,10.0,SSE,8.1,-,N/A,,Mostly Cloudy,160,2012-12-07 02:53:00
6:53 PM,37.0,28.0,70,29.63,10.0,SSE,9.2,-,N/A,,Mostly Cloudy,150,2012-12-07 03:53:00
7:53 PM,36.0,28.9,76,29.60,10.0,SE,9.2,-,N/A,,Mostly Cloudy,140,2012-12-07 04:53:00
8:30 PM,37.4,28.4,70,29.59,10.0,SSE,10.4,17.3,0.00,Rain,Light Rain,160,2012-12-07 05:30:00
8:39 PM,37.4,28.4,70,29.59,9.0,South,9.2,-,0.00,Snow,Light Snow,180,2012-12-07 05:39:00
8:53 PM,36.0,30.0,79,29.60,9.0,Variable,4.6,-,0.00,Snow,Light Snow,0,2012-12-07 05:53:00
9:04 PM,35.6,30.2,81,29.60,10.0,South,5.8,-,N/A,,Overcast,190,2012-12-07 06:04:00
9:17 PM,35.6,30.2,81,29.60,8.0,South,4.6,-,0.00,Snow,Light Snow,180,2012-12-07 06:17:00
9:51 PM,33.8,32.0,93,29.61,2.0,Variable,5.8,-,0.01,Snow,Light Snow,0,2012-12-07 06:51:00
9:53 PM,34.0,32.0,92,29.62,1.8,SSW,4.6,-,0.01,Snow,Light Snow,200,2012-12-07 06:53:00
10:53 PM,33.1,32.0,96,29.65,1.0,SE,6.9,-,0.12,Snow,Light Snow,130,2012-12-07 07:53:00
11:12 PM,33.8,32.0,93,29.65,0.8,ESE,8.1,-,0.04,Snow,Light Snow,120,2012-12-07 08:12:00
11:32 PM,33.8,32.0,93,29.66,1.0,ESE,6.9,-,0.08,Snow,Light Snow,110,2012-12-07 08:32:00
11:43 PM,33.8,32.0,93,29.66,2.0,ESE,5.8,-,0.09,Snow,Light Snow,120,2012-12-07 08:43:00
11:47 PM,33.8,32.0,93,29.66,3.0,Calm,Calm,-,0.09,Snow,Light Snow,0,2012-12-07 08:47:00
11:53 PM,33.1,32.0,96,29.67,3.0,Calm,Calm,-,0.09,Snow,Light Snow,0,2012-12-07 08:53:00
11:57 PM,33.8,32.0,93,29.67,1.8,Calm,Calm,-,0.00,Snow,Light Snow,0,2012-12-07 08:57:00